URSA MAIOR (42776 NORAD) Tracking and Keplerian Element Data

This shows tracking and keplerian element data for the satellite.

Feedback or suggestion? Click here.




ElementValue
Catalog42776
NameURSA MAIOR
Epoch Orbit10170
Epoch Day113.71853187
Epoch Year2019
RAAN171.9167
Inclination97.3562
Eccentricity0.0015331
Argument of Perigee60.8345
Mean Anonmoly299.4423
Mean Motion15.21367185
Decay Rate7.91E-06
L11 42776U 17036M 19113.71853187 .00000791 00000-0 38273-4 0 9992
L22 42776 97.3562 171.9167 0015331 60.8345 299.4423 15.21367185101702

Live tracking and technical data element details for URSA MAIOR (NORAD 42776). URSA MAIOR can be tracked NOW for your location showing map with azimuth and elevation plus other details from your city location.

Track the satellite on the map from your city or location and see movement details for azimuth, elevation, latitude, longitude, range, height, and movement on the map or in text.







IsCatalogInMostPopularTable: catalog: 42776, numindb: 180
Update: records affected: 1



GetName: 42776 URSA MAIOR

Hit Count: updated at: Wed, 24 Apr 2019 18:29:13 GMT